Home   Weather   Gronau (Westfalen)   Past weeks

Flag for Germany Past Weather in Gronau (Westfalen), North Rhine-Westphalia, Germany — Yesterday and Last 2 Weeks

Now
58 °F

Overcast.


Feels Like: 57 °F
Forecast: 47 / 55 °F
Wind: 7 mph from Southeast

Location: Twenthe

Current Time: Apr 30, 2017 at 1:08:35 pm

Latest Report: Apr 30, 2017 at 12:00 pm


Visibility: 19 mi

Pressure: 29.92 "Hg

Humidity: 46%

Dew Point: 37 °F

Location of Gronau (Westfalen)Location

Past Weather in Gronau (Westfalen) — Graph

°F

Gronau (Westfalen) Temperature Yesterday

Maximum temperature yesterday: 54 °F (at 7:00 pm)
Minimum temperature yesterday: 34 °F (at 3:00 am)
Average temperature yesterday: 44 °F

High & Low Weather Summary for the Past Weeks

 TemperatureHumidityPressure
High57 °F (Apr 21, 2:00 pm)100% (Apr 20, 7:00 am)30.65 "Hg (Apr 20, 7:00 am)
Low25 °F (Apr 20, 6:00 am)35% (Apr 20, 4:00 pm)29.66 "Hg (Apr 25, 5:00 am)
Average43 °F73%30.14 "Hg
* Reported Apr 15 11:00 am — Apr 30 10:00 am, Gronau (Westfalen), Weather by CustomWeather, © 2017

Note: Actual official high and low records may vary slightly from our data, if they occured in-between our weather recording intervals... More about our weather records

Advertising

Gronau (Westfalen) Weather History for the Previous 24 Hours

Scroll right to see more
 ConditionsComfort  
Time TempWeatherWind HumidityBarometerVisibility
10:00 am
Sun, Apr 30
52 °FScattered clouds.6 mph50%29.96 "Hg22 mi
9:00 am47 °FSunny.7 mph57%29.98 "Hg25 mi
8:00 am43 °FSunny.6 mph64%30.00 "Hg25 mi
7:00 am40 °FSunny.6 mph70%30.00 "Hg28 mi
6:00 am39 °FClear.5 mph71%30.02 "Hg28 mi
5:00 am39 °FClear.3 mph72%30.03 "Hg28 mi
4:00 am38 °FClear.2 mph75%30.03 "Hg28 mi
3:00 am38 °FClear.2 mph76%30.04 "Hg28 mi
2:00 am37 °FClear.2 mph78%30.05 "Hg28 mi
1:00 am42 °FClear.2 mph70%30.05 "Hg28 mi
12:00 am43 °FClear.2 mph69%30.05 "Hg28 mi
11:00 pm
Sat, Apr 29
44 °FClear.2 mph68%30.06 "Hg28 mi
10:00 pm44 °FClear.2 mph66%30.06 "Hg28 mi
9:00 pm49 °FClear.2 mph51%30.05 "Hg28 mi
8:00 pm52 °FPassing clouds.1 mph49%30.05 "Hg28 mi
7:00 pm54 °FOvercast.2 mph40%30.05 "Hg25 mi
6:00 pm53 °FSunny.2 mph44%30.06 "Hg28 mi
5:00 pm53 °FOvercast.3 mph49%30.06 "Hg25 mi
4:00 pm52 °FOvercast.2 mph49%30.07 "Hg28 mi
3:00 pm53 °FScattered clouds.2 mph54%30.07 "Hg22 mi
2:00 pm50 °FOvercast.2 mph59%30.08 "Hg25 mi
1:00 pm49 °FOvercast.1 mph62%30.09 "Hg22 mi
Weather by CustomWeather, © 2017

See weather overviewHow to use our weather pages